| time (UTC) | temp F | wind direction | speed knots | gust knots | rain 1hr in | rain 24hr in | rain mn in | humidity % | barometer mb |
| 20260503053629 | 58 | 146 | 0.0 | 0.9 | 0.00 | 0.33 | 0.03 | 94 | 1009.7 |
| 20260503052640 | 58 | 146 | 0.0 | 0.9 | 0.00 | 0.33 | 0.03 | 94 | 1009.7 |
| 20260503052139 | 58 | 130 | 0.0 | 0.0 | 0.00 | 0.33 | 0.03 | 94 | 1009.8 |
| 20260503051635 | 58 | 130 | 0.0 | 0.9 | 0.00 | 0.33 | 0.03 | 94 | 1009.8 |
| 20260503051133 | 57 | 130 | 0.0 | 0.9 | 0.00 | 0.33 | 0.03 | 94 | 1009.8 |
| 20260503050854 | 57 | 130 | 0.0 | 0.0 | 0.00 | 0.33 | 0.03 | 94 | 1009.8 |
| 20260503050353 | 57 | 130 | 0.0 | 0.0 | 0.00 | 0.33 | 0.03 | 94 | 1009.9 |
| 20260503045619 | 57 | 130 | 0.0 | 0.0 | 0.00 | 0.33 | 0.03 | 94 | 1010.0 |
| 20260503045113 | 57 | 130 | 0.0 | 0.0 | 0.00 | 0.33 | 0.03 | 94 | 1010.0 |
| 20260503044607 | 57 | 130 | 0.0 | 0.0 | 0.00 | 0.33 | 0.03 | 94 | 1010.1 |
| 20260503044101 | 57 | 130 | 0.0 | 0.0 | 0.00 | 0.33 | 0.03 | 94 | 1010.1 |
| 20260503043555 | 57 | 130 | 0.0 | 0.0 | 0.00 | 0.33 | 0.03 | 94 | 1010.1 |
| 20260503043049 | 57 | 130 | 0.0 | 0.0 | 0.00 | 0.33 | 0.03 | 94 | 1010.1 |
| 20260503042806 | 57 | 130 | 0.0 | 0.0 | 0.00 | 0.33 | 0.03 | 94 | 1010.1 |
| 20260503042038 | 57 | 130 | 0.0 | 0.9 | 0.00 | 0.33 | 0.03 | 94 | 1010.2 |
| 20260503041532 | 57 | 130 | 0.0 | 0.9 | 0.00 | 0.33 | 0.03 | 94 | 1010.0 |
| 20260503041249 | 57 | 130 | 0.0 | 0.9 | 0.00 | 0.33 | 0.03 | 94 | 1010.2 |
| 20260503040519 | 57 | 130 | 0.0 | 0.9 | 0.00 | 0.33 | 0.03 | 94 | 1010.1 |
| 20260503040013 | 58 | 130 | 0.0 | 0.9 | 0.00 | 0.33 | 0.03 | 94 | 1010.0 |
| 20260503035507 | 58 | 130 | 0.0 | 0.0 | 0.00 | 0.33 | 0.03 | 94 | 1010.0 |
| 20260503035001 | 58 | 130 | 0.0 | 0.9 | 0.00 | 0.33 | 0.03 | 94 | 1010.0 |
| 20260503034455 | 58 | 130 | 0.0 | 0.9 | 0.00 | 0.33 | 0.03 | 94 | 1010.0 |
| 20260503033949 | 58 | 130 | 0.0 | 0.9 | 0.00 | 0.33 | 0.03 | 94 | 1009.9 |
| 20260503033931 | 58 | 130 | 0.0 | 0.9 | 0.00 | 0.33 | 0.03 | 94 | 1010.0 |
| 20260503032937 | 58 | 130 | 0.0 | 0.9 | 0.00 | 0.33 | 0.03 | 94 | 1010.0 |
| 20260503032432 | 58 | 130 | 0.0 | 0.9 | 0.00 | 0.33 | 0.03 | 94 | 1010.1 |
| 20260503031926 | 58 | 130 | 0.0 | 1.7 | 0.00 | 0.33 | 0.03 | 94 | 1010.2 |
| 20260503031421 | 58 | 130 | 0.0 | 1.7 | 0.00 | 0.33 | 0.03 | 94 | 1010.2 |
| 20260503031140 | 58 | 130 | 0.0 | 2.6 | 0.00 | 0.33 | 0.03 | 94 | 1010.1 |
| 20260503030409 | 58 | 130 | 0.0 | 2.6 | 0.00 | 0.33 | 0.03 | 94 | 1010.0 |
| 20260503025902 | 58 | 180 | 0.0 | 1.7 | 0.00 | 0.33 | 0.03 | 94 | 1010.2 |
| 20260503025840 | 58 | 198 | 0.0 | 0.0 | 0.00 | 0.33 | 0.03 | 94 | 1010.6 |
| 20260503024851 | 58 | 198 | 0.0 | 0.0 | 0.00 | 0.33 | 0.03 | 94 | 1010.8 |
| 20260503024607 | 58 | 198 | 0.0 | 0.9 | 0.00 | 0.33 | 0.03 | 94 | 1010.8 |
| 20260503023836 | 58 | 198 | 0.0 | 0.9 | 0.00 | 0.33 | 0.03 | 94 | 1010.9 |
| 20260503023551 | 58 | 198 | 0.0 | 0.9 | 0.00 | 0.33 | 0.03 | 94 | 1011.0 |
| 20260503022825 | 58 | 198 | 0.9 | 2.6 | 0.00 | 0.33 | 0.03 | 94 | 1011.2 |
| 20260503022319 | 58 | 205 | 0.9 | 2.6 | 0.00 | 0.33 | 0.03 | 94 | 1011.5 |
| 20260503022033 | 58 | 202 | 0.0 | 2.6 | 0.00 | 0.33 | 0.03 | 93 | 1011.5 |
| 20260503021309 | 58 | 164 | 0.0 | 0.0 | 0.00 | 0.33 | 0.03 | 93 | 1011.3 |
| 20260503021026 | 58 | 164 | 0.0 | 0.0 | 0.00 | 0.33 | 0.03 | 93 | 1011.4 |
| 20260503020256 | 58 | 164 | 0.0 | 0.0 | 0.00 | 0.33 | 0.03 | 93 | 1011.5 |
| 20260503015749 | 58 | 164 | 0.0 | 0.0 | 0.00 | 0.33 | 0.03 | 93 | 1011.5 |
| 20260503015243 | 58 | 164 | 0.0 | 0.9 | 0.00 | 0.33 | 0.03 | 93 | 1011.6 |
| 20260503014737 | 58 | 164 | 0.0 | 0.9 | 0.00 | 0.33 | 0.03 | 93 | 1011.5 |
| 20260503014500 | 58 | 164 | 0.0 | 1.7 | 0.00 | 0.33 | 0.03 | 93 | 1011.6 |
| 20260503013725 | 58 | 164 | 0.0 | 3.5 | 0.00 | 0.33 | 0.03 | 93 | 1011.4 |
| 20260503013219 | 58 | 163 | 0.0 | 3.5 | 0.00 | 0.33 | 0.03 | 93 | 1011.5 |
| 20260503012713 | 58 | 164 | 0.0 | 1.7 | 0.00 | 0.33 | 0.03 | 93 | 1011.5 |
| 20260503012207 | 58 | 164 | 0.0 | 1.7 | 0.00 | 0.33 | 0.03 | 93 | 1011.4 |
| 20260503011701 | 58 | 161 | 0.0 | 1.7 | 0.00 | 0.33 | 0.03 | 93 | 1011.4 |
| 20260503011418 | 58 | 161 | 0.9 | 3.5 | 0.00 | 0.33 | 0.03 | 93 | 1011.2 |
| 20260503010649 | 58 | 160 | 0.9 | 3.5 | 0.00 | 0.33 | 0.03 | 93 | 1011.3 |
| 20260503010414 | 58 | 148 | 0.9 | 3.5 | 0.00 | 0.33 | 0.03 | 93 | 1011.3 |
| 20260503005636 | 58 | 153 | 0.0 | 2.6 | 0.00 | 0.33 | 0.03 | 93 | 1011.2 |
| 20260503005131 | 58 | 142 | 0.0 | 1.7 | 0.00 | 0.33 | 0.03 | 93 | 1011.3 |
| 20260503004627 | 58 | 141 | 0.0 | 1.7 | 0.00 | 0.33 | 0.03 | 93 | 1011.4 |
| 20260503004127 | 58 | 111 | 0.0 | 1.7 | 0.00 | 0.33 | 0.03 | 93 | 1011.4 |
| 20260503003627 | 58 | 109 | 0.0 | 1.7 | 0.00 | 0.33 | 0.03 | 93 | 1011.4 |
| 20260503003125 | 58 | 76 | 0.0 | 0.9 | 0.00 | 0.33 | 0.03 | 93 | 1011.5 |
| 20260503002625 | 58 | 76 | 0.0 | 0.0 | 0.00 | 0.33 | 0.03 | 93 | 1011.5 |
| 20260503002123 | 58 | 76 | 0.0 | 0.9 | 0.00 | 0.33 | 0.03 | 93 | 1011.4 |
| 20260503001620 | 58 | 76 | 0.0 | 0.9 | 0.00 | 0.33 | 0.03 | 93 | 1011.5 |
| 20260503001121 | 58 | 76 | 0.0 | 0.0 | 0.00 | 0.33 | 0.03 | 93 | 1011.5 |
| 20260503000621 | 58 | 76 | 0.0 | 1.7 | 0.00 | 0.33 | 0.03 | 93 | 1011.5 |
| 20260503000121 | 58 | 76 | 0.0 | 2.6 | 0.00 | 0.33 | 0.03 | 93 | 1011.6 |
| 20260502235846 | 58 | 93 | 0.0 | 2.6 | 0.00 | 0.33 | 0.03 | 92 | 1011.5 |
| 20260502235121 | 59 | 44 | 0.9 | 4.3 | 0.00 | 0.33 | 0.03 | 92 | 1011.6 |
| 20260502234843 | 59 | 55 | 0.0 | 4.3 | 0.00 | 0.33 | 0.03 | 92 | 1011.7 |
| 20260502234121 | 59 | 83 | 0.0 | 0.9 | 0.00 | 0.33 | 0.03 | 92 | 1011.7 |
| 20260502233621 | 59 | 80 | 0.0 | 2.6 | 0.01 | 0.33 | 0.03 | 92 | 1011.9 |
| 20260502233121 | 59 | 53 | 0.0 | 2.6 | 0.02 | 0.33 | 0.03 | 92 | 1011.8 |
| 20260502232840 | 59 | 67 | 0.0 | 1.7 | 0.03 | 0.33 | 0.03 | 92 | 1011.9 |
| 20260502232121 | 59 | 66 | 0.0 | 1.7 | 0.03 | 0.33 | 0.03 | 92 | 1011.8 |
| 20260502231621 | 59 | 68 | 0.0 | 1.7 | 0.03 | 0.33 | 0.03 | 92 | 1011.8 |
| 20260502231121 | 59 | 63 | 0.0 | 2.6 | 0.03 | 0.33 | 0.03 | 92 | 1011.9 |
| 20260502230618 | 59 | 63 | 0.0 | 3.5 | 0.03 | 0.33 | 0.03 | 92 | 1012.0 |
| 20260502230112 | 59 | 44 | 0.0 | 3.5 | 0.03 | 0.33 | 0.03 | 92 | 1012.1 |
| 20260502225835 | 59 | 90 | 0.0 | 3.5 | 0.03 | 0.33 | 0.03 | 92 | 1012.2 |
| 20260502225100 | 59 | 63 | 0.0 | 1.7 | 0.03 | 0.33 | 0.03 | 92 | 1012.1 |
| 20260502224555 | 59 | 59 | 0.0 | 2.6 | 0.03 | 0.33 | 0.03 | 92 | 1012.0 |
| 20260502224048 | 59 | 82 | 0.0 | 2.6 | 0.03 | 0.33 | 0.03 | 91 | 1012.0 |
| 20260502223542 | 59 | 156 | 0.0 | 1.7 | 0.02 | 0.32 | 0.02 | 91 | 1012.1 |
| 20260502223036 | 59 | 156 | 0.0 | 1.7 | 0.01 | 0.31 | 0.01 | 91 | 1012.2 |
| 20260502222529 | 59 | 156 | 0.0 | 1.7 | 0.00 | 0.30 | 0.00 | 91 | 1012.4 |
| 20260502222022 | 59 | 109 | 0.0 | 0.9 | 0.00 | 0.30 | 0.00 | 91 | 1012.3 |
| 20260502221954 | 59 | 111 | 0.0 | 0.9 | 0.00 | 0.30 | 0.00 | 91 | 1012.3 |
| 20260502221009 | 59 | 107 | 0.0 | 2.6 | 0.00 | 0.30 | 0.00 | 91 | 1012.2 |
| 20260502220501 | 59 | 108 | 0.0 | 2.6 | 0.00 | 0.30 | 0.00 | 90 | 1012.3 |
| 20260502220000 | 59 | 65 | 0.0 | 0.9 | 0.01 | 0.30 | 0.30 | 91 | 1012.3 |
| 20260502215452 | 59 | 57 | 0.0 | 1.7 | 0.02 | 0.30 | 0.30 | 90 | 1012.2 |
| 20260502214947 | 59 | 57 | 0.0 | 1.7 | 0.05 | 0.30 | 0.30 | 90 | 1012.3 |
| 20260502214440 | 60 | 89 | 0.0 | 1.7 | 0.07 | 0.30 | 0.30 | 90 | 1012.3 |
| 20260502213934 | 59 | 88 | 0.0 | 1.7 | 0.09 | 0.30 | 0.30 | 90 | 1012.3 |
| 20260502213428 | 59 | 78 | 0.0 | 1.7 | 0.12 | 0.30 | 0.30 | 90 | 1012.4 |
| 20260502212922 | 60 | 77 | 0.0 | 1.7 | 0.15 | 0.30 | 0.30 | 90 | 1012.3 |
| 20260502212422 | 60 | 82 | 0.0 | 1.7 | 0.16 | 0.30 | 0.30 | 89 | 1012.3 |
| 20260502211921 | 60 | 57 | 0.0 | 1.7 | 0.21 | 0.30 | 0.30 | 89 | 1012.3 |
| 20260502211421 | 60 | 38 | 0.0 | 1.7 | 0.25 | 0.30 | 0.30 | 89 | 1012.4 |
| 20260502210920 | 60 | 28 | 0.9 | 2.6 | 0.29 | 0.30 | 0.30 | 89 | 1012.5 |
| 20260502210420 | 60 | 28 | 0.9 | 5.2 | 0.29 | 0.30 | 0.30 | 88 | 1012.7 |
| 20260502205918 | 60 | 39 | 0.9 | 5.2 | 0.28 | 0.29 | 0.29 | 88 | 1012.6 |
| 20260502205419 | 60 | 55 | 0.9 | 3.5 | 0.27 | 0.27 | 0.28 | 87 | 1012.9 |
| 20260502204919 | 61 | 61 | 1.7 | 3.5 | 0.25 | 0.25 | 0.26 | 87 | 1013.4 |
| 20260502204643 | 61 | 65 | 0.9 | 3.5 | 0.22 | 0.22 | 0.23 | 86 | 1013.9 |
| 20260502203918 | 61 | 94 | 0.9 | 2.6 | 0.21 | 0.21 | 0.21 | 86 | 1014.5 |
| 20260502203418 | 61 | 213 | 2.6 | 4.3 | 0.18 | 0.18 | 0.18 | 85 | 1014.5 |
| 20260502202916 | 61 | 225 | 3.5 | 7.8 | 0.15 | 0.15 | 0.16 | 84 | 1014.5 |
| 20260502202632 | 62 | 228 | 7.0 | 15.6 | 0.14 | 0.14 | 0.14 | 83 | 1014.5 |
| 20260502202137 | 62 | 249 | 9.6 | 15.6 | 0.09 | 0.09 | 0.10 | 82 | 1014.3 |
| 20260502201414 | 64 | 259 | 10.4 | 18.2 | 0.05 | 0.05 | 0.06 | 79 | 1014.2 |
| 20260502201352 | 65 | 241 | 6.1 | 18.2 | 0.01 | 0.01 | 0.01 | 75 | 1014.0 |
| 20260502200855 | 66 | 240 | 1.7 | 16.5 | 0.01 | 0.01 | 0.01 | 71 | 1013.9 |
| 20260502200401 | 66 | 350 | 1.7 | 6.1 | 0.01 | 0.01 | 0.01 | 68 | 1012.8 |
| 20260502195633 | 67 | 344 | 1.7 | 5.2 | 0.00 | 0.00 | 0.00 | 66 | 1012.9 |
| 20260502195139 | 67 | 350 | 1.7 | 5.2 | 0.00 | 0.00 | 0.00 | 63 | 1012.9 |
| 20260502194408 | 67 | 5 | 2.6 | 6.1 | 0.00 | 0.00 | 0.00 | 63 | 1012.8 |
| 20260502193901 | 67 | 14 | 1.7 | 6.1 | 0.00 | 0.00 | 0.00 | 63 | 1012.8 |
| 20260502193357 | 68 | 346 | 0.9 | 4.3 | 0.00 | 0.00 | 0.00 | 64 | 1012.8 |
| 20260502193110 | 68 | 20 | 0.9 | 4.3 | 0.00 | 0.00 | 0.00 | 63 | 1012.9 |
| 20260502192607 | 68 | 25 | 0.9 | 3.5 | 0.00 | 0.00 | 0.00 | 63 | 1012.9 |
| 20260502191837 | 68 | 0 | 0.9 | 5.2 | 0.00 | 0.00 | 0.00 | 63 | 1013.0 |
| 20260502191331 | 69 | 54 | 1.7 | 5.2 | 0.00 | 0.00 | 0.00 | 63 | 1013.0 |
| 20260502190825 | 69 | 66 | 1.7 | 4.3 | 0.00 | 0.00 | 0.00 | 62 | 1012.9 |
| 20260502190319 | 69 | 355 | 1.7 | 4.3 | 0.00 | 0.00 | 0.00 | 62 | 1012.9 |
| 20260502185815 | 69 | 11 | 1.7 | 5.2 | 0.00 | 0.00 | 0.00 | 62 | 1012.9 |
| 20260502185519 | 70 | 5 | 0.9 | 5.2 | 0.00 | 0.00 | 0.00 | 59 | 1012.8 |
| 20260502185358 | 70 | 84 | 0.9 | 5.2 | 0.00 | 0.00 | 0.00 | 60 | 1012.9 |
| 20260502184255 | 70 | 28 | 0.9 | 3.5 | 0.00 | 0.00 | 0.00 | 58 | 1013.0 |
| 20260502183749 | 70 | 5 | 0.0 | 3.5 | 0.00 | 0.00 | 0.00 | 58 | 1013.0 |
| 20260502183243 | 70 | 11 | 0.0 | 3.5 | 0.00 | 0.00 | 0.00 | 57 | 1013.0 |
| 20260502183214 | 71 | 36 | 0.9 | 3.5 | 0.00 | 0.00 | 0.00 | 57 | 1013.0 |
| 20260502182232 | 71 | 25 | 1.7 | 3.5 | 0.00 | 0.00 | 0.00 | 56 | 1012.9 |
| 20260502181725 | 71 | 16 | 1.7 | 7.0 | 0.00 | 0.00 | 0.00 | 56 | 1013.0 |
| 20260502181219 | 71 | 355 | 1.7 | 7.0 | 0.00 | 0.00 | 0.00 | 55 | 1012.9 |
| 20260502180932 | 71 | 5 | 1.7 | 4.3 | 0.00 | 0.00 | 0.00 | 56 | 1012.9 |
| 20260502180206 | 71 | 19 | 1.7 | 3.5 | 0.00 | 0.00 | 0.00 | 57 | 1012.9 |
| 20260502164031 | 72 | 340 | 1.7 | 7.0 | 0.00 | 0.00 | 0.00 | 61 | 1013.6 |
| 20260502163525 | 72 | 355 | 1.7 | 7.0 | 0.00 | 0.00 | 0.00 | 61 | 1013.7 |
| 20260502163019 | 72 | 337 | 1.7 | 7.0 | 0.00 | 0.00 | 0.00 | 61 | 1013.8 |
| 20260502162512 | 73 | 340 | 1.7 | 7.0 | 0.00 | 0.00 | 0.00 | 61 | 1013.9 |
| 20260502162014 | 73 | 9 | 0.9 | 5.2 | 0.00 | 0.00 | 0.00 | 63 | 1014.0 |
| 20260502161514 | 73 | 349 | 1.7 | 7.0 | 0.00 | 0.00 | 0.00 | 63 | 1014.0 |
| 20260502161013 | 73 | 0 | 2.6 | 7.8 | 0.00 | 0.00 | 0.00 | 63 | 1014.1 |
| 20260502160732 | 73 | 347 | 1.7 | 7.8 | 0.00 | 0.00 | 0.00 | 61 | 1014.0 |
| 20260502152235 | 72 | 355 | 3.5 | 10.4 | 0.00 | 0.00 | 0.00 | 64 | 1014.5 |
| 20260502151507 | 72 | 0 | 2.6 | 10.4 | 0.00 | 0.00 | 0.00 | 62 | 1014.6 |
| 20260502151459 | 72 | 351 | 1.7 | 7.8 | 0.00 | 0.00 | 0.00 | 63 | 1014.6 |
| 20260502150505 | 72 | 346 | 0.9 | 7.8 | 0.00 | 0.00 | 0.00 | 64 | 1014.7 |
| 20260502150228 | 72 | 11 | 0.9 | 7.8 | 0.00 | 0.00 | 0.00 | 63 | 1014.7 |
| 20260502130455 | 72 | 240 | 6.1 | 10.4 | 0.00 | 0.00 | 0.00 | 65 | 1016.3 |
| 20260502123451 | 70 | 241 | 5.2 | 10.4 | 0.00 | 0.00 | 0.00 | 69 | 1016.6 |
| 20260502122951 | 70 | 263 | 5.2 | 11.3 | 0.00 | 0.00 | 0.00 | 70 | 1016.6 |
| 20260502122451 | 70 | 243 | 5.2 | 11.3 | 0.00 | 0.00 | 0.00 | 70 | 1016.7 |
| 20260502122213 | 70 | 241 | 4.3 | 8.7 | 0.00 | 0.00 | 0.00 | 70 | 1016.7 |
| 20260502121449 | 70 | 219 | 4.3 | 8.7 | 0.00 | 0.00 | 0.00 | 70 | 1016.8 |
| 20260502120948 | 70 | 234 | 4.3 | 9.6 | 0.00 | 0.00 | 0.00 | 71 | 1016.7 |
| 20260502120449 | 69 | 264 | 5.2 | 9.6 | 0.00 | 0.00 | 0.00 | 70 | 1016.9 |
| 20260502115446 | 70 | 263 | 6.1 | 9.6 | 0.00 | 0.00 | 0.00 | 71 | 1017.0 |
| 20260502114940 | 70 | 238 | 6.1 | 10.4 | 0.00 | 0.00 | 0.00 | 71 | 1017.0 |
| 20260502114433 | 70 | 234 | 5.2 | 10.4 | 0.00 | 0.00 | 0.00 | 72 | 1017.1 |
| 20260502113928 | 69 | 228 | 4.3 | 10.4 | 0.00 | 0.00 | 0.00 | 73 | 1017.1 |
| 20260502113422 | 69 | 205 | 2.6 | 8.7 | 0.00 | 0.00 | 0.00 | 73 | 1017.3 |
| 20260502113405 | 69 | 259 | 4.3 | 10.4 | 0.00 | 0.00 | 0.00 | 73 | 1017.3 |
| 20260502112410 | 69 | 238 | 4.3 | 10.4 | 0.00 | 0.00 | 0.00 | 73 | 1017.3 |
| 20260502111904 | 68 | 236 | 1.7 | 7.8 | 0.00 | 0.00 | 0.00 | 72 | 1017.4 |
| 20260502111359 | 68 | 273 | 2.6 | 9.6 | 0.00 | 0.00 | 0.00 | 75 | 1017.4 |
| 20260502110853 | 68 | 276 | 5.2 | 11.3 | 0.00 | 0.00 | 0.00 | 73 | 1017.5 |
| 20260502110606 | 69 | 253 | 6.1 | 11.3 | 0.00 | 0.00 | 0.00 | 73 | 1017.5 |
| 20260502105840 | 69 | 215 | 6.1 | 11.3 | 0.00 | 0.00 | 0.00 | 73 | 1017.4 |
| 20260502105334 | 69 | 246 | 6.1 | 11.3 | 0.00 | 0.00 | 0.00 | 72 | 1017.4 |
| 20260502105050 | 69 | 238 | 5.2 | 10.4 | 0.00 | 0.00 | 0.00 | 73 | 1017.5 |
| 20260502104322 | 68 | 224 | 5.2 | 10.4 | 0.00 | 0.00 | 0.00 | 74 | 1017.5 |
| 20260502103816 | 69 | 244 | 6.1 | 10.4 | 0.00 | 0.00 | 0.00 | 74 | 1017.6 |
| 20260502103752 | 69 | 205 | 5.2 | 14.8 | 0.00 | 0.00 | 0.00 | 73 | 1017.6 |
| 20260502102804 | 68 | 196 | 5.2 | 14.8 | 0.00 | 0.00 | 0.00 | 73 | 1017.7 |
| 20260502102258 | 69 | 299 | 6.1 | 11.3 | 0.00 | 0.00 | 0.00 | 72 | 1017.6 |
| 20260502101752 | 68 | 236 | 7.0 | 11.3 | 0.00 | 0.00 | 0.00 | 75 | 1017.8 |
| 20260502101246 | 68 | 267 | 7.8 | 12.2 | 0.00 | 0.00 | 0.00 | 73 | 1017.7 |
| 20260502100742 | 68 | 239 | 7.8 | 12.2 | 0.00 | 0.00 | 0.00 | 72 | 1017.8 |
| 20260502100500 | 69 | 232 | 7.8 | 12.2 | 0.00 | 0.00 | 0.00 | 73 | 1017.7 |
| 20260502091156 | 68 | 211 | 6.1 | 11.3 | 0.00 | 0.00 | 0.00 | 77 | 1017.9 |
| 20260502090656 | 67 | 230 | 7.0 | 11.3 | 0.00 | 0.00 | 0.00 | 77 | 1018.0 |
| 20260502090643 | 67 | 223 | 6.1 | 10.4 | 0.00 | 0.00 | 0.00 | 77 | 1018.1 |
| 20260502071148 | 58 | 199 | 0.9 | 2.6 | 0.00 | 0.00 | 0.00 | 79 | 1017.9 |
| 20260502070648 | 57 | 199 | 0.0 | 1.7 | 0.00 | 0.00 | 0.00 | 79 | 1017.9 |
| 20260502070147 | 57 | 200 | 0.0 | 0.9 | 0.00 | 0.00 | 0.00 | 78 | 1017.9 |
| 20260502065648 | 57 | 200 | 0.0 | 1.7 | 0.00 | 0.00 | 0.00 | 78 | 1017.9 |
| 20260502065148 | 57 | 200 | 0.0 | 1.7 | 0.00 | 0.00 | 0.00 | 78 | 1017.8 |
| 20260502064648 | 57 | 200 | 0.0 | 1.7 | 0.00 | 0.00 | 0.00 | 78 | 1017.7 |
| 20260502064150 | 57 | 200 | 0.0 | 0.9 | 0.00 | 0.00 | 0.00 | 79 | 1017.7 |
| 20260502063646 | 56 | 200 | 0.0 | 0.9 | 0.00 | 0.00 | 0.00 | 78 | 1017.7 |
| 20260502063145 | 56 | 200 | 0.0 | 0.9 | 0.00 | 0.00 | 0.00 | 79 | 1017.6 |
| 20260502062640 | 56 | 200 | 0.0 | 1.7 | 0.00 | 0.00 | 0.00 | 78 | 1017.7 |
| 20260502062132 | 56 | 200 | 0.0 | 1.7 | 0.00 | 0.00 | 0.00 | 77 | 1017.7 |
| 20260502061843 | 56 | 200 | 0.9 | 1.7 | 0.00 | 0.00 | 0.00 | 76 | 1017.8 |
| 20260502061121 | 56 | 200 | 0.0 | 1.7 | 0.00 | 0.00 | 0.00 | 76 | 1017.8 |
| 20260502060613 | 56 | 202 | 0.0 | 0.0 | 0.00 | 0.00 | 0.00 | 75 | 1017.8 |
| 20260502060328 | 56 | 202 | 0.0 | 0.9 | 0.00 | 0.00 | 0.00 | 75 | 1017.8 |
| 20260502055601 | 56 | 202 | 0.9 | 1.7 | 0.00 | 0.00 | 0.00 | 75 | 1017.8 |
| 20260502055055 | 56 | 202 | 0.0 | 1.7 | 0.00 | 0.00 | 0.00 | 74 | 1018.0 |
| 20260502055030 | 55 | 202 | 0.0 | 0.9 | 0.00 | 0.00 | 0.00 | 74 | 1018.0 |
| 20260502054309 | 55 | 202 | 0.0 | 0.9 | 0.00 | 0.00 | 0.00 | 75 | 1018.0 |